F1AGU-13 Weather Reports


time (UTC)temp
C
wind
direction
speed
KPH
gust
KPH
rain 1hr
cm
rain 24hr
cm
rain mn
cm
humidity
%
barometer
mb
20260506195517 6 180 4.8 8.0 0.00 2.03 1.45 93 1011.8
20260506194517 6 180 1.6 4.8 0.00 2.13 1.45 94 1011.6
20260506193517 6 180 3.2 6.4 0.00 2.21 1.45 94 1011.4
20260506192517 6 225 3.2 4.8 0.00 2.21 1.45 93 1011.4
20260506191517 6 158 3.2 6.4 0.00 2.21 1.45 93 1011.2
20260506190517 6 180 3.2 6.4 0.00 2.21 1.45 93 1011.2
20260506185517 6 180 3.2 6.4 0.00 2.21 1.45 92 1011.2
20260506184517 7 158 1.6 6.4 0.00 2.21 1.45 92 1011.0
20260506183517 7 180 1.6 3.2 0.00 2.34 1.45 91 1010.8
20260506182517 7 203 3.2 4.8 0.00 2.69 1.45 91 1010.7
20260506181517 7 203 3.2 4.8 0.00 2.79 1.45 90 1010.7
20260506180517 7 225 3.2 6.4 0.00 2.90 1.45 90 1010.7
20260506175517 8 203 4.8 6.4 0.00 2.97 1.45 89 1010.5
20260506174517 8 225 3.2 6.4 0.00 2.97 1.45 87 1010.6
20260506173517 8 0.0 3.2 0.00 2.97 1.45 86 1010.5
20260506172516 9 0.0 0.0 0.00 2.97 1.45 85 1010.4
20260506171516 10 0.0 3.2 0.00 2.97 1.45 83 1010.5
20260506170517 11 203 4.8 9.7 0.00 2.97 1.45 79 1010.7
20260506165516 11 315 1.6 4.8 0.00 2.97 1.45 80 1010.7
20260506164517 11 338 1.6 3.2 0.00 2.97 1.45 79 1010.5
20260506163516 11 338 4.8 6.4 0.00 2.97 1.45 77 1010.7
20260506162516 11 338 4.8 9.7 0.00 2.97 1.45 80 1010.5
20260506161516 11 315 8.0 14.5 0.00 2.97 1.45 79 1010.8
20260506160516 11 338 4.8 8.0 0.00 2.97 1.45 81 1010.5
20260506155516 10 315 4.8 8.0 0.00 2.97 1.45 81 1010.5
20260506154516 10 315 8.0 9.7 0.00 2.97 1.45 82 1010.6
20260506153516 10 338 6.4 9.7 0.00 2.97 1.45 80 1010.6
20260506152517 10 0 8.0 12.9 0.00 2.97 1.45 80 1010.4
20260506151516 9 338 6.4 9.7 0.00 2.97 1.45 81 1010.5
20260506150516 9 338 4.8 8.0 0.00 2.97 1.45 82 1010.5
20260506145516 9 338 8.0 12.9 0.00 2.97 1.45 82 1010.6
20260506144516 9 338 6.4 11.3 0.00 2.97 1.45 82 1010.5
20260506143516 9 338 6.4 9.7 0.00 2.97 1.45 83 1010.7
20260506142517 9 338 8.0 14.5 0.00 2.97 1.45 84 1010.5
20260506141516 9 0 8.0 14.5 0.00 2.97 1.45 83 1010.8
20260506140516 9 0 11.3 19.3 0.00 2.97 1.45 83 1010.7
20260506135516 10 315 9.7 20.9 0.00 2.97 1.45 84 1010.9
20260506134516 10 338 4.8 11.3 0.00 2.97 1.45 77 1011.0
20260506133516 10 203 6.4 11.3 0.00 2.97 1.45 76 1010.8
20260506132516 10 180 4.8 11.3 0.00 2.97 1.45 74 1010.9
20260506131516 10 225 6.4 9.7 0.00 2.97 1.45 77 1011.2
20260506130516 10 225 4.8 9.7 0.00 2.97 1.45 77 1010.9
20260506125516 10 203 9.7 17.7 0.00 2.97 1.45 82 1010.9
20260506124516 10 203 8.0 14.5 0.03 2.97 1.45 83 1011.0
20260506123516 9 203 8.0 12.9 0.03 2.97 1.45 88 1010.8
20260506122516 8 203 9.7 14.5 0.05 2.97 1.45 86 1010.8
20260506121516 8 180 8.0 16.1 0.05 2.97 1.45 85 1010.6
20260506120516 7 180 6.4 11.3 0.13 3.02 1.45 91 1010.7
20260506115516 7 203 6.4 9.7 0.18 3.10 1.45 91 1010.5
20260506114517 7 203 9.7 14.5 0.18 3.23 1.42 90 1010.4
20260506113516 7 203 9.7 14.5 0.20 3.38 1.42 92 1010.5
20260506112516 6 203 8.0 14.5 0.18 3.43 1.40 92 1010.6
20260506111516 6 203 11.3 19.3 0.18 3.53 1.37 92 1010.5
20260506110516 6 203 6.4 14.5 0.15 3.61 1.32 93 1010.3
20260506105516 7 203 6.4 17.7 0.10 3.63 1.27 92 1010.3
20260506104516 7 180 6.4 14.5 0.15 3.66 1.24 91 1010.2
20260506103516 7 203 11.3 17.7 0.18 3.66 1.22 91 1010.1
20260506102516 7 203 9.7 19.3 0.23 3.66 1.22 91 1010.0
20260506101516 8 248 3.2 8.0 0.20 3.63 1.19 92 1010.1
20260506100516 7 135 6.4 14.5 0.20 3.63 1.17 91 1009.7
20260506095516 7 203 6.4 14.5 0.20 3.63 1.17 89 1009.8
20260506094516 7 203 6.4 16.1 0.15 3.61 1.09 92 1009.5
20260506093516 7 180 11.3 16.1 0.15 3.53 1.04 91 1009.4
20260506092516 7 135 8.0 14.5 0.15 3.51 0.99 89 1009.2
20260506091516 7 158 9.7 17.7 0.23 3.53 0.99 89 1009.1
20260506090516 7 135 12.9 29.0 0.23 3.51 0.99 89 1009.1
20260506085516 7 135 9.7 24.1 0.23 3.51 0.97 91 1008.9
20260506084516 7 180 14.5 35.4 0.23 3.48 0.94 89 1008.9
20260506083516 7 180 11.3 17.7 0.23 3.43 0.89 93 1008.7
20260506082516 7 203 4.8 11.3 0.15 3.38 0.84 95 1008.7
20260506081515 7 180 12.9 27.4 0.10 3.30 0.76 95 1008.4
20260506080516 7 203 4.8 14.5 0.13 3.28 0.74 98 1008.2
20260506073515 7 338 3.2 6.4 0.28 3.23 0.69 98 1008.3
20260506072515 7 0.0 3.2 0.36 3.23 0.69 98 1008.2
20260506071515 6 0.0 0.0 0.38 3.20 0.66 98 1008.1
20260506070515 6 0.0 3.2 0.38 3.15 0.61 98 1008.0
20260506062515 6 0.0 1.6 0.18 2.87 0.33 98 1007.7
20260506061515 6 315 3.2 4.8 0.15 2.82 0.28 98 1007.8
20260506060515 6 0.0 3.2 0.10 2.77 0.23 98 1007.9
20260506050517 6 0.0 3.2 0.08 2.69 0.15 98 1007.8
20260506044517 6 113 1.6 4.8 0.08 2.69 0.15 98 1008.0
20260506043517 6 0.0 1.6 0.05 2.67 0.10 98 1007.7
20260506042517 6 0.0 0.0 0.03 2.64 0.08 98 1007.7
20260506041517 6 180 1.6 3.2 0.00 2.67 0.05 98 1007.9
20260506040517 6 113 1.6 3.2 0.00 2.69 0.05 98 1007.9
20260506035517 6 113 1.6 3.2 0.00 2.69 0.05 98 1007.8
20260506034517 6 0.0 1.6 0.00 2.74 0.05 98 1007.9
20260506033517 6 0.0 0.0 0.03 2.82 0.05 98 1007.8
20260506032517 6 180 1.6 3.2 0.03 2.87 0.05 98 1007.9
20260506031517 6 113 1.6 3.2 0.03 2.87 0.05 98 1007.9
20260506030517 6 0.0 0.0 0.03 2.92 0.05 97 1007.9
20260506025517 6 0.0 0.0 0.03 2.95 0.05 97 1008.0
20260506024519 6 0.0 0.0 0.03 3.02 0.05 97 1008.0
20260506023517 6 0.0 0.0 0.00 3.10 0.05 97 1008.0
20260506022517 6 0.0 0.0 0.00 3.17 0.05 98 1008.1
20260506021517 6 0.0 0.0 0.00 3.28 0.05 97 1008.1
20260506020517 6 113 1.6 4.8 0.00 3.33 0.05 97 1008.2
20260506015517 6 203 3.2 4.8 0.00 3.43 0.05 97 1008.4
20260506014517 6 203 1.6 3.2 0.00 3.48 0.05 97 1008.2
20260506013517 6 135 1.6 3.2 0.00 3.53 0.05 98 1008.4
20260506012517 6 135 1.6 4.8 0.00 3.61 0.05 97 1008.8
20260506011517 6 180 1.6 3.2 0.00 3.66 0.05 97 1008.7
20260506010517 6 225 1.6 4.8 0.00 3.71 0.05 97 1008.7
20260506005517 6 135 1.6 4.8 0.00 3.78 0.05 97 1008.8
20260506004517 6 0.0 1.6 0.00 3.81 0.05 97 1008.5
20260506003517 6 0.0 1.6 0.00 3.91 0.05 97 1008.7
20260506002517 6 0.0 1.6 0.00 4.04 0.05 97 1009.1
20260506001517 6 0.0 3.2 0.00 4.19 0.05 97 1009.3
20260506000517 6 135 1.6 3.2 0.00 4.37 0.05 97 1009.5
20260505235517 6 0.0 0.0 0.03 4.50 0.05 97 1009.5
20260505234517 6 135 3.2 6.4 0.03 4.57 0.05 97 1009.7
20260505233517 7 0.0 0.0 0.03 4.67 0.05 97 1010.0
20260505232517 7 0.0 1.6 0.03 4.72 0.05 97 1010.1
20260505231517 7 180 1.6 4.8 0.03 4.75 0.05 97 1010.4
20260505230516 7 135 1.6 3.2 0.03 4.80 0.05 97 1010.5
20260505225517 7 203 3.2 4.8 0.05 4.80 0.03 97 1010.7
20260505224517 7 180 1.6 6.4 0.13 4.83 0.03 97 1010.6
20260505223517 7 225 3.2 4.8 0.15 4.83 0.03 96 1010.6
20260505222517 7 45 4.8 8.0 0.18 4.83 0.03 96 1010.5
20260505221516 7 315 1.6 4.8 0.23 4.83 0.03 96 1010.6
20260505220516 7 315 3.2 4.8 0.23 4.83 0.03 96 1010.9
20260505215517 7 0.0 1.6 0.18 4.75 4.75 96 1011.3
20260505214517 7 180 3.2 4.8 0.13 4.70 4.70 96 1011.4
20260505213517 7 293 3.2 6.4 0.08 4.65 4.65 96 1011.5
20260505212517 7 0 1.6 4.8 0.10 4.65 4.65 96 1011.6
20260505211517 7 135 3.2 4.8 0.20 4.60 4.60 96 1011.5
20260505210517 7 180 3.2 6.4 0.28 4.57 4.57 96 1011.7
20260505205517 7 0.0 3.2 0.38 4.57 4.57 96 1011.5
20260505204517 7 135 3.2 4.8 0.48 4.57 4.57 95 1011.5
20260505203517 7 0 1.6 3.2 0.53 4.57 4.57 95 1011.5
20260505202517 7 90 3.2 6.4 0.51 4.55 4.55 95 1011.8
20260505201517 7 225 3.2 4.8 0.38 4.39 4.39 95 1012.0
20260505200517 7 68 1.6 6.4 0.28 4.29 4.29 94 1011.5